Data supplied by UK-AIR on 31/3/2012
All Data GMT hour ending 
Status: R =Ratified P=Provisional,P*=As supplied
,,Bottesford,,,,,,,,,,,,,,,,,,,,,,,
Date,time,"Ozone",status,unit
 
01-01-2011,01:00,18,R,ugm-3
01-01-2011,02:00,20,R,ugm-3
01-01-2011,03:00,24,R,ugm-3
01-01-2011,04:00,22,R,ugm-3
01-01-2011,05:00,18,R,ugm-3
01-01-2011,06:00,20,R,ugm-3
01-01-2011,07:00,22,R,ugm-3
01-01-2011,08:00,24,R,ugm-3
01-01-2011,09:00,24,R,ugm-3
01-01-2011,10:00,22,R,ugm-3
01-01-2011,11:00,42,R,ugm-3
01-01-2011,12:00,50,R,ugm-3
01-01-2011,13:00,56,R,ugm-3
01-01-2011,14:00,60,R,ugm-3
01-01-2011,15:00,52,R,ugm-3
01-01-2011,16:00,52,R,ugm-3
01-01-2011,17:00,50,R,ugm-3
01-01-2011,18:00,44,R,ugm-3
01-01-2011,19:00,38,R,ugm-3
01-01-2011,20:00,36,R,ugm-3
01-01-2011,21:00,38,R,ugm-3
01-01-2011,22:00,38,R,ugm-3
01-01-2011,23:00,36,R,ugm-3
01-01-2011,24:00,36,R,ugm-3
02-01-2011,01:00,44,R,ugm-3
02-01-2011,02:00,46,R,ugm-3
02-01-2011,03:00,48,R,ugm-3
02-01-2011,04:00,48,R,ugm-3
02-01-2011,05:00,54,R,ugm-3
02-01-2011,06:00,52,R,ugm-3
02-01-2011,07:00,40,R,ugm-3
02-01-2011,08:00,46,R,ugm-3
02-01-2011,09:00,48,R,ugm-3
02-01-2011,10:00,46,R,ugm-3
02-01-2011,11:00,52,R,ugm-3
02-01-2011,12:00,52,R,ugm-3
02-01-2011,13:00,50,R,ugm-3
02-01-2011,14:00,50,R,ugm-3
02-01-2011,15:00,44,R,ugm-3
02-01-2011,16:00,42,R,ugm-3
02-01-2011,17:00,34,R,ugm-3
02-01-2011,18:00,30,R,ugm-3
02-01-2011,19:00,28,R,ugm-3
02-01-2011,20:00,18,R,ugm-3
02-01-2011,21:00,12,R,ugm-3
02-01-2011,22:00,12,R,ugm-3
02-01-2011,23:00,6,R,ugm-3
02-01-2011,24:00,8,R,ugm-3
03-01-2011,01:00,10,R,ugm-3
03-01-2011,02:00,8,R,ugm-3
03-01-2011,03:00,8,R,ugm-3
03-01-2011,04:00,10,R,ugm-3
03-01-2011,05:00,14,R,ugm-3
03-01-2011,06:00,10,R,ugm-3
03-01-2011,07:00,12,R,ugm-3
03-01-2011,08:00,12,R,ugm-3
03-01-2011,09:00,16,R,ugm-3
03-01-2011,10:00,20,R,ugm-3
03-01-2011,11:00,24,R,ugm-3
03-01-2011,12:00,30,R,ugm-3
03-01-2011,13:00,28,R,ugm-3
03-01-2011,14:00,34,R,ugm-3
03-01-2011,15:00,34,R,ugm-3
03-01-2011,16:00,34,R,ugm-3
03-01-2011,17:00,30,R,ugm-3
03-01-2011,18:00,22,R,ugm-3
03-01-2011,19:00,16,R,ugm-3
03-01-2011,20:00,10,R,ugm-3
03-01-2011,21:00,10,R,ugm-3
03-01-2011,22:00,4,R,ugm-3
03-01-2011,23:00,0,R,ugm-3
03-01-2011,24:00,6,R,ugm-3
04-01-2011,01:00,8,R,ugm-3
04-01-2011,02:00,10,R,ugm-3
04-01-2011,03:00,18,R,ugm-3
04-01-2011,04:00,26,R,ugm-3
04-01-2011,05:00,30,R,ugm-3
04-01-2011,06:00,34,R,ugm-3
04-01-2011,07:00,38,R,ugm-3
04-01-2011,08:00,38,R,ugm-3
04-01-2011,09:00,30,R,ugm-3
04-01-2011,10:00,24,R,ugm-3
04-01-2011,11:00,32,R,ugm-3
04-01-2011,12:00,34,R,ugm-3
04-01-2011,13:00,34,R,ugm-3
04-01-2011,14:00,28,R,ugm-3
04-01-2011,15:00,24,R,ugm-3
04-01-2011,16:00,28,R,ugm-3
04-01-2011,17:00,34,R,ugm-3
04-01-2011,18:00,32,R,ugm-3
04-01-2011,19:00,32,R,ugm-3
04-01-2011,20:00,32,R,ugm-3
04-01-2011,21:00,38,R,ugm-3
04-01-2011,22:00,40,R,ugm-3
04-01-2011,23:00,46,R,ugm-3
04-01-2011,24:00,48,R,ugm-3
05-01-2011,01:00,50,R,ugm-3
05-01-2011,02:00,50,R,ugm-3
05-01-2011,03:00,54,R,ugm-3
05-01-2011,04:00,58,R,ugm-3
05-01-2011,05:00,58,R,ugm-3
05-01-2011,06:00,58,R,ugm-3
05-01-2011,07:00,60,R,ugm-3
05-01-2011,08:00,60,R,ugm-3
05-01-2011,09:00,58,R,ugm-3
05-01-2011,10:00,56,R,ugm-3
05-01-2011,11:00,56,R,ugm-3
05-01-2011,12:00,50,R,ugm-3
05-01-2011,13:00,42,R,ugm-3
05-01-2011,14:00,46,R,ugm-3
05-01-2011,15:00,46,R,ugm-3
05-01-2011,16:00,42,R,ugm-3
05-01-2011,17:00,38,R,ugm-3
05-01-2011,18:00,36,R,ugm-3
05-01-2011,19:00,28,R,ugm-3
05-01-2011,20:00,20,R,ugm-3
05-01-2011,21:00,24,R,ugm-3
05-01-2011,22:00,32,R,ugm-3
05-01-2011,23:00,42,R,ugm-3
05-01-2011,24:00,48,R,ugm-3
06-01-2011,01:00,42,R,ugm-3
06-01-2011,02:00,42,R,ugm-3
06-01-2011,03:00,40,R,ugm-3
06-01-2011,04:00,40,R,ugm-3
06-01-2011,05:00,40,R,ugm-3
06-01-2011,06:00,38,R,ugm-3
06-01-2011,07:00,34,R,ugm-3
06-01-2011,08:00,30,R,ugm-3
06-01-2011,09:00,26,R,ugm-3
06-01-2011,10:00,22,R,ugm-3
06-01-2011,11:00,20,R,ugm-3
06-01-2011,12:00,22,R,ugm-3
06-01-2011,13:00,18,R,ugm-3
06-01-2011,14:00,12,R,ugm-3
06-01-2011,15:00,6,R,ugm-3
06-01-2011,16:00,2,R,ugm-3
06-01-2011,17:00,0,R,ugm-3
06-01-2011,18:00,0,R,ugm-3
06-01-2011,19:00,0,R,ugm-3
06-01-2011,20:00,0,R,ugm-3
06-01-2011,21:00,0,R,ugm-3
06-01-2011,22:00,0,R,ugm-3
06-01-2011,23:00,26,R,ugm-3
06-01-2011,24:00,46,R,ugm-3
07-01-2011,01:00,38,R,ugm-3
07-01-2011,02:00,28,R,ugm-3
07-01-2011,03:00,28,R,ugm-3
07-01-2011,04:00,16,R,ugm-3
07-01-2011,05:00,18,R,ugm-3
07-01-2011,06:00,22,R,ugm-3
07-01-2011,07:00,34,R,ugm-3
07-01-2011,08:00,32,R,ugm-3
07-01-2011,09:00,34,R,ugm-3
07-01-2011,10:00,36,R,ugm-3
07-01-2011,11:00,32,R,ugm-3
07-01-2011,12:00,36,R,ugm-3
07-01-2011,13:00,32,R,ugm-3
07-01-2011,14:00,30,R,ugm-3
07-01-2011,15:00,26,R,ugm-3
07-01-2011,16:00,18,R,ugm-3
07-01-2011,17:00,10,R,ugm-3
07-01-2011,18:00,4,R,ugm-3
07-01-2011,19:00,4,R,ugm-3
07-01-2011,20:00,26,R,ugm-3
07-01-2011,21:00,56,R,ugm-3
07-01-2011,22:00,60,R,ugm-3
07-01-2011,23:00,58,R,ugm-3
07-01-2011,24:00,60,R,ugm-3
08-01-2011,01:00,60,R,ugm-3
08-01-2011,02:00,62,R,ugm-3
08-01-2011,03:00,64,R,ugm-3
08-01-2011,04:00,60,R,ugm-3
08-01-2011,05:00,58,R,ugm-3
08-01-2011,06:00,58,R,ugm-3
08-01-2011,07:00,58,R,ugm-3
08-01-2011,08:00,60,R,ugm-3
08-01-2011,09:00,56,R,ugm-3
08-01-2011,10:00,36,R,ugm-3
08-01-2011,11:00,44,R,ugm-3
08-01-2011,12:00,58,R,ugm-3
08-01-2011,13:00,60,R,ugm-3
08-01-2011,14:00,58,R,ugm-3
08-01-2011,15:00,60,R,ugm-3
08-01-2011,16:00,56,R,ugm-3
08-01-2011,17:00,56,R,ugm-3
08-01-2011,18:00,54,R,ugm-3
08-01-2011,19:00,54,R,ugm-3
08-01-2011,20:00,58,R,ugm-3
08-01-2011,21:00,56,R,ugm-3
08-01-2011,22:00,56,R,ugm-3
08-01-2011,23:00,54,R,ugm-3
08-01-2011,24:00,56,R,ugm-3
09-01-2011,01:00,52,R,ugm-3
09-01-2011,02:00,52,R,ugm-3
09-01-2011,03:00,50,R,ugm-3
09-01-2011,04:00,60,R,ugm-3
09-01-2011,05:00,60,R,ugm-3
09-01-2011,06:00,54,R,ugm-3
09-01-2011,07:00,62,R,ugm-3
09-01-2011,08:00,62,R,ugm-3
09-01-2011,09:00,62,R,ugm-3
09-01-2011,10:00,58,R,ugm-3
09-01-2011,11:00,54,R,ugm-3
09-01-2011,12:00,56,R,ugm-3
09-01-2011,13:00,62,R,ugm-3
09-01-2011,14:00,62,R,ugm-3
09-01-2011,15:00,60,R,ugm-3
09-01-2011,16:00,52,R,ugm-3
09-01-2011,17:00,52,R,ugm-3
09-01-2011,18:00,46,R,ugm-3
09-01-2011,19:00,42,R,ugm-3
09-01-2011,20:00,32,R,ugm-3
09-01-2011,21:00,26,R,ugm-3
09-01-2011,22:00,22,R,ugm-3
09-01-2011,23:00,26,R,ugm-3
09-01-2011,24:00,32,R,ugm-3
10-01-2011,01:00,38,R,ugm-3
10-01-2011,02:00,44,R,ugm-3
10-01-2011,03:00,48,R,ugm-3
10-01-2011,04:00,48,R,ugm-3
10-01-2011,05:00,52,R,ugm-3
10-01-2011,06:00,48,R,ugm-3
10-01-2011,07:00,46,R,ugm-3
10-01-2011,08:00,44,R,ugm-3
10-01-2011,09:00,42,R,ugm-3
10-01-2011,10:00,46,R,ugm-3
10-01-2011,11:00,52,R,ugm-3
10-01-2011,12:00,54,R,ugm-3
10-01-2011,13:00,56,R,ugm-3
10-01-2011,14:00,62,R,ugm-3
10-01-2011,15:00,62,R,ugm-3
10-01-2011,16:00,64,R,ugm-3
10-01-2011,17:00,66,R,ugm-3
10-01-2011,18:00,66,R,ugm-3
10-01-2011,19:00,66,R,ugm-3
10-01-2011,20:00,60,R,ugm-3
10-01-2011,21:00,60,R,ugm-3
10-01-2011,22:00,60,R,ugm-3
10-01-2011,23:00,62,R,ugm-3
10-01-2011,24:00,60,R,ugm-3
11-01-2011,01:00,60,R,ugm-3
11-01-2011,02:00,60,R,ugm-3
11-01-2011,03:00,58,R,ugm-3
11-01-2011,04:00,54,R,ugm-3
11-01-2011,05:00,52,R,ugm-3
11-01-2011,06:00,52,R,ugm-3
11-01-2011,07:00,50,R,ugm-3
11-01-2011,08:00,38,R,ugm-3
11-01-2011,09:00,38,R,ugm-3
11-01-2011,10:00,38,R,ugm-3
11-01-2011,11:00,32,R,ugm-3
11-01-2011,12:00,,,
11-01-2011,13:00,48,R,ugm-3
11-01-2011,14:00,54,R,ugm-3
11-01-2011,15:00,58,R,ugm-3
11-01-2011,16:00,52,R,ugm-3
11-01-2011,17:00,56,R,ugm-3
11-01-2011,18:00,48,R,ugm-3
11-01-2011,19:00,44,R,ugm-3
11-01-2011,20:00,16,R,ugm-3
11-01-2011,21:00,8,R,ugm-3
11-01-2011,22:00,12,R,ugm-3
11-01-2011,23:00,20,R,ugm-3
11-01-2011,24:00,8,R,ugm-3
12-01-2011,01:00,16,R,ugm-3
12-01-2011,02:00,36,R,ugm-3
12-01-2011,03:00,42,R,ugm-3
12-01-2011,04:00,52,R,ugm-3
12-01-2011,05:00,52,R,ugm-3
12-01-2011,06:00,50,R,ugm-3
12-01-2011,07:00,54,R,ugm-3
12-01-2011,08:00,50,R,ugm-3
12-01-2011,09:00,44,R,ugm-3
12-01-2011,10:00,38,R,ugm-3
12-01-2011,11:00,30,R,ugm-3
12-01-2011,12:00,30,R,ugm-3
12-01-2011,13:00,30,R,ugm-3
12-01-2011,14:00,32,R,ugm-3
12-01-2011,15:00,30,R,ugm-3
12-01-2011,16:00,20,R,ugm-3
12-01-2011,17:00,20,R,ugm-3
12-01-2011,18:00,18,R,ugm-3
12-01-2011,19:00,20,R,ugm-3
12-01-2011,20:00,26,R,ugm-3
12-01-2011,21:00,26,R,ugm-3
12-01-2011,22:00,28,R,ugm-3
12-01-2011,23:00,28,R,ugm-3
12-01-2011,24:00,32,R,ugm-3
13-01-2011,01:00,34,R,ugm-3
13-01-2011,02:00,34,R,ugm-3
13-01-2011,03:00,38,R,ugm-3
13-01-2011,04:00,42,R,ugm-3
13-01-2011,05:00,44,R,ugm-3
13-01-2011,06:00,42,R,ugm-3
13-01-2011,07:00,40,R,ugm-3
13-01-2011,08:00,40,R,ugm-3
13-01-2011,09:00,40,R,ugm-3
13-01-2011,10:00,38,R,ugm-3
13-01-2011,11:00,46,R,ugm-3
13-01-2011,12:00,48,R,ugm-3
13-01-2011,13:00,48,R,ugm-3
13-01-2011,14:00,52,R,ugm-3
13-01-2011,15:00,54,R,ugm-3
13-01-2011,16:00,46,R,ugm-3
13-01-2011,17:00,38,R,ugm-3
13-01-2011,18:00,44,R,ugm-3
13-01-2011,19:00,40,R,ugm-3
13-01-2011,20:00,24,R,ugm-3
13-01-2011,21:00,28,R,ugm-3
13-01-2011,22:00,28,R,ugm-3
13-01-2011,23:00,36,R,ugm-3
13-01-2011,24:00,34,R,ugm-3
14-01-2011,01:00,30,R,ugm-3
14-01-2011,02:00,44,R,ugm-3
14-01-2011,03:00,50,R,ugm-3
14-01-2011,04:00,38,R,ugm-3
14-01-2011,05:00,50,R,ugm-3
14-01-2011,06:00,50,R,ugm-3
14-01-2011,07:00,52,R,ugm-3
14-01-2011,08:00,50,R,ugm-3
14-01-2011,09:00,52,R,ugm-3
14-01-2011,10:00,54,R,ugm-3
14-01-2011,11:00,56,R,ugm-3
14-01-2011,12:00,60,R,ugm-3
14-01-2011,13:00,58,R,ugm-3
14-01-2011,14:00,58,R,ugm-3
14-01-2011,15:00,56,R,ugm-3
14-01-2011,16:00,60,R,ugm-3
14-01-2011,17:00,58,R,ugm-3
14-01-2011,18:00,56,R,ugm-3
14-01-2011,19:00,52,R,ugm-3
14-01-2011,20:00,50,R,ugm-3
14-01-2011,21:00,54,R,ugm-3
14-01-2011,22:00,54,R,ugm-3
14-01-2011,23:00,46,R,ugm-3
14-01-2011,24:00,50,R,ugm-3
15-01-2011,01:00,54,R,ugm-3
15-01-2011,02:00,60,R,ugm-3
15-01-2011,03:00,64,R,ugm-3
15-01-2011,04:00,62,R,ugm-3
15-01-2011,05:00,66,R,ugm-3
15-01-2011,06:00,68,R,ugm-3
15-01-2011,07:00,68,R,ugm-3
15-01-2011,08:00,70,R,ugm-3
15-01-2011,09:00,70,R,ugm-3
15-01-2011,10:00,70,R,ugm-3
15-01-2011,11:00,70,R,ugm-3
15-01-2011,12:00,70,R,ugm-3
15-01-2011,13:00,72,R,ugm-3
15-01-2011,14:00,72,R,ugm-3
15-01-2011,15:00,72,R,ugm-3
15-01-2011,16:00,72,R,ugm-3
15-01-2011,17:00,70,R,ugm-3
15-01-2011,18:00,70,R,ugm-3
15-01-2011,19:00,72,R,ugm-3
15-01-2011,20:00,72,R,ugm-3
15-01-2011,21:00,72,R,ugm-3
15-01-2011,22:00,74,R,ugm-3
15-01-2011,23:00,76,R,ugm-3
15-01-2011,24:00,72,R,ugm-3
16-01-2011,01:00,74,R,ugm-3
16-01-2011,02:00,74,R,ugm-3
16-01-2011,03:00,76,R,ugm-3
16-01-2011,04:00,76,R,ugm-3
16-01-2011,05:00,74,R,ugm-3
16-01-2011,06:00,72,R,ugm-3
16-01-2011,07:00,62,R,ugm-3
16-01-2011,08:00,58,R,ugm-3
16-01-2011,09:00,60,R,ugm-3
16-01-2011,10:00,62,R,ugm-3
16-01-2011,11:00,64,R,ugm-3
16-01-2011,12:00,68,R,ugm-3
16-01-2011,13:00,70,R,ugm-3
16-01-2011,14:00,70,R,ugm-3
16-01-2011,15:00,70,R,ugm-3
16-01-2011,16:00,66,R,ugm-3
16-01-2011,17:00,64,R,ugm-3
16-01-2011,18:00,60,R,ugm-3
16-01-2011,19:00,56,R,ugm-3
16-01-2011,20:00,62,R,ugm-3
16-01-2011,21:00,60,R,ugm-3
16-01-2011,22:00,54,R,ugm-3
16-01-2011,23:00,48,R,ugm-3
16-01-2011,24:00,48,R,ugm-3
17-01-2011,01:00,42,R,ugm-3
17-01-2011,02:00,44,R,ugm-3
17-01-2011,03:00,46,R,ugm-3
17-01-2011,04:00,42,R,ugm-3
17-01-2011,05:00,38,R,ugm-3
17-01-2011,06:00,40,R,ugm-3
17-01-2011,07:00,44,R,ugm-3
17-01-2011,08:00,36,R,ugm-3
17-01-2011,09:00,6,R,ugm-3
17-01-2011,10:00,14,R,ugm-3
17-01-2011,11:00,4,R,ugm-3
17-01-2011,12:00,6,R,ugm-3
17-01-2011,13:00,,,
17-01-2011,14:00,16,R,ugm-3
17-01-2011,15:00,18,R,ugm-3
17-01-2011,16:00,6,R,ugm-3
17-01-2011,17:00,4,R,ugm-3
17-01-2011,18:00,4,R,ugm-3
17-01-2011,19:00,6,R,ugm-3
17-01-2011,20:00,4,R,ugm-3
17-01-2011,21:00,4,R,ugm-3
17-01-2011,22:00,4,R,ugm-3
17-01-2011,23:00,4,R,ugm-3
17-01-2011,24:00,4,R,ugm-3
18-01-2011,01:00,4,R,ugm-3
18-01-2011,02:00,4,R,ugm-3
18-01-2011,03:00,4,R,ugm-3
18-01-2011,04:00,4,R,ugm-3
18-01-2011,05:00,4,R,ugm-3
18-01-2011,06:00,4,R,ugm-3
18-01-2011,07:00,4,R,ugm-3
18-01-2011,08:00,8,R,ugm-3
18-01-2011,09:00,16,R,ugm-3
18-01-2011,10:00,22,R,ugm-3
18-01-2011,11:00,28,R,ugm-3
18-01-2011,12:00,28,R,ugm-3
18-01-2011,13:00,52,R,ugm-3
18-01-2011,14:00,72,R,ugm-3
18-01-2011,15:00,74,R,ugm-3
18-01-2011,16:00,70,R,ugm-3
18-01-2011,17:00,50,R,ugm-3
18-01-2011,18:00,40,R,ugm-3
18-01-2011,19:00,40,R,ugm-3
18-01-2011,20:00,16,R,ugm-3
18-01-2011,21:00,30,R,ugm-3
18-01-2011,22:00,24,R,ugm-3
18-01-2011,23:00,30,R,ugm-3
18-01-2011,24:00,30,R,ugm-3
19-01-2011,01:00,36,R,ugm-3
19-01-2011,02:00,38,R,ugm-3
19-01-2011,03:00,36,R,ugm-3
19-01-2011,04:00,36,R,ugm-3
19-01-2011,05:00,36,R,ugm-3
19-01-2011,06:00,32,R,ugm-3
19-01-2011,07:00,28,R,ugm-3
19-01-2011,08:00,22,R,ugm-3
19-01-2011,09:00,22,R,ugm-3
19-01-2011,10:00,20,R,ugm-3
19-01-2011,11:00,24,R,ugm-3
19-01-2011,12:00,24,R,ugm-3
19-01-2011,13:00,18,R,ugm-3
19-01-2011,14:00,22,R,ugm-3
19-01-2011,15:00,52,R,ugm-3
19-01-2011,16:00,48,R,ugm-3
19-01-2011,17:00,34,R,ugm-3
19-01-2011,18:00,30,R,ugm-3
19-01-2011,19:00,26,R,ugm-3
19-01-2011,20:00,18,R,ugm-3
19-01-2011,21:00,16,R,ugm-3
19-01-2011,22:00,14,R,ugm-3
19-01-2011,23:00,14,R,ugm-3
19-01-2011,24:00,16,R,ugm-3
20-01-2011,01:00,12,R,ugm-3
20-01-2011,02:00,14,R,ugm-3
20-01-2011,03:00,16,R,ugm-3
20-01-2011,04:00,20,R,ugm-3
20-01-2011,05:00,20,R,ugm-3
20-01-2011,06:00,22,R,ugm-3
20-01-2011,07:00,18,R,ugm-3
20-01-2011,08:00,12,R,ugm-3
20-01-2011,09:00,18,R,ugm-3
20-01-2011,10:00,16,R,ugm-3
20-01-2011,11:00,18,R,ugm-3
20-01-2011,12:00,20,R,ugm-3
20-01-2011,13:00,34,R,ugm-3
20-01-2011,14:00,44,R,ugm-3
20-01-2011,15:00,44,R,ugm-3
20-01-2011,16:00,34,R,ugm-3
20-01-2011,17:00,14,R,ugm-3
20-01-2011,18:00,14,R,ugm-3
20-01-2011,19:00,8,R,ugm-3
20-01-2011,20:00,6,R,ugm-3
20-01-2011,21:00,6,R,ugm-3
20-01-2011,22:00,6,R,ugm-3
20-01-2011,23:00,8,R,ugm-3
20-01-2011,24:00,6,R,ugm-3
21-01-2011,01:00,6,R,ugm-3
21-01-2011,02:00,6,R,ugm-3
21-01-2011,03:00,6,R,ugm-3
21-01-2011,04:00,6,R,ugm-3
21-01-2011,05:00,6,R,ugm-3
21-01-2011,06:00,6,R,ugm-3
21-01-2011,07:00,6,R,ugm-3
21-01-2011,08:00,6,R,ugm-3
21-01-2011,09:00,8,R,ugm-3
21-01-2011,10:00,14,R,ugm-3
21-01-2011,11:00,20,R,ugm-3
21-01-2011,12:00,22,R,ugm-3
21-01-2011,13:00,20,R,ugm-3
21-01-2011,14:00,26,R,ugm-3
21-01-2011,15:00,26,R,ugm-3
21-01-2011,16:00,16,R,ugm-3
21-01-2011,17:00,6,R,ugm-3
21-01-2011,18:00,6,R,ugm-3
21-01-2011,19:00,6,R,ugm-3
21-01-2011,20:00,6,R,ugm-3
21-01-2011,21:00,8,R,ugm-3
21-01-2011,22:00,8,R,ugm-3
21-01-2011,23:00,8,R,ugm-3
21-01-2011,24:00,6,R,ugm-3
22-01-2011,01:00,8,R,ugm-3
22-01-2011,02:00,6,R,ugm-3
22-01-2011,03:00,6,R,ugm-3
22-01-2011,04:00,6,R,ugm-3
22-01-2011,05:00,4,R,ugm-3
22-01-2011,06:00,6,R,ugm-3
22-01-2011,07:00,6,R,ugm-3
22-01-2011,08:00,6,R,ugm-3
22-01-2011,09:00,14,R,ugm-3
22-01-2011,10:00,16,R,ugm-3
22-01-2011,11:00,28,R,ugm-3
22-01-2011,12:00,42,R,ugm-3
22-01-2011,13:00,48,R,ugm-3
22-01-2011,14:00,50,R,ugm-3
22-01-2011,15:00,52,R,ugm-3
22-01-2011,16:00,48,R,ugm-3
22-01-2011,17:00,50,R,ugm-3
22-01-2011,18:00,44,R,ugm-3
22-01-2011,19:00,48,R,ugm-3
22-01-2011,20:00,50,R,ugm-3
22-01-2011,21:00,50,R,ugm-3
22-01-2011,22:00,46,R,ugm-3
22-01-2011,23:00,54,R,ugm-3
22-01-2011,24:00,46,R,ugm-3
23-01-2011,01:00,46,R,ugm-3
23-01-2011,02:00,42,R,ugm-3
23-01-2011,03:00,38,R,ugm-3
23-01-2011,04:00,44,R,ugm-3
23-01-2011,05:00,48,R,ugm-3
23-01-2011,06:00,48,R,ugm-3
23-01-2011,07:00,48,R,ugm-3
23-01-2011,08:00,48,R,ugm-3
23-01-2011,09:00,52,R,ugm-3
23-01-2011,10:00,54,R,ugm-3
23-01-2011,11:00,50,R,ugm-3
23-01-2011,12:00,52,R,ugm-3
23-01-2011,13:00,52,R,ugm-3
23-01-2011,14:00,58,R,ugm-3
23-01-2011,15:00,58,R,ugm-3
23-01-2011,16:00,52,R,ugm-3
23-01-2011,17:00,52,R,ugm-3
23-01-2011,18:00,48,R,ugm-3
23-01-2011,19:00,50,R,ugm-3
23-01-2011,20:00,54,R,ugm-3
23-01-2011,21:00,50,R,ugm-3
23-01-2011,22:00,52,R,ugm-3
23-01-2011,23:00,54,R,ugm-3
23-01-2011,24:00,50,R,ugm-3
24-01-2011,01:00,52,R,ugm-3
24-01-2011,02:00,52,R,ugm-3
24-01-2011,03:00,52,R,ugm-3
24-01-2011,04:00,50,R,ugm-3
24-01-2011,05:00,50,R,ugm-3
24-01-2011,06:00,48,R,ugm-3
24-01-2011,07:00,40,R,ugm-3
24-01-2011,08:00,36,R,ugm-3
24-01-2011,09:00,38,R,ugm-3
24-01-2011,10:00,34,R,ugm-3
24-01-2011,11:00,26,R,ugm-3
24-01-2011,12:00,32,R,ugm-3
24-01-2011,13:00,42,R,ugm-3
24-01-2011,14:00,60,R,ugm-3
24-01-2011,15:00,64,R,ugm-3
24-01-2011,16:00,64,R,ugm-3
24-01-2011,17:00,56,R,ugm-3
24-01-2011,18:00,40,R,ugm-3
24-01-2011,19:00,34,R,ugm-3
24-01-2011,20:00,36,R,ugm-3
24-01-2011,21:00,40,R,ugm-3
24-01-2011,22:00,46,R,ugm-3
24-01-2011,23:00,46,R,ugm-3
24-01-2011,24:00,60,R,ugm-3
25-01-2011,01:00,56,R,ugm-3
25-01-2011,02:00,58,R,ugm-3
25-01-2011,03:00,60,R,ugm-3
25-01-2011,04:00,62,R,ugm-3
25-01-2011,05:00,66,R,ugm-3
25-01-2011,06:00,64,R,ugm-3
25-01-2011,07:00,58,R,ugm-3
25-01-2011,08:00,56,R,ugm-3
25-01-2011,09:00,48,R,ugm-3
25-01-2011,10:00,38,R,ugm-3
25-01-2011,11:00,40,R,ugm-3
25-01-2011,12:00,44,R,ugm-3
25-01-2011,13:00,44,R,ugm-3
25-01-2011,14:00,,,
25-01-2011,15:00,40,R,ugm-3
25-01-2011,16:00,40,R,ugm-3
25-01-2011,17:00,30,R,ugm-3
25-01-2011,18:00,20,R,ugm-3
25-01-2011,19:00,30,R,ugm-3
25-01-2011,20:00,26,R,ugm-3
25-01-2011,21:00,26,R,ugm-3
25-01-2011,22:00,22,R,ugm-3
25-01-2011,23:00,16,R,ugm-3
25-01-2011,24:00,16,R,ugm-3
26-01-2011,01:00,20,R,ugm-3
26-01-2011,02:00,20,R,ugm-3
26-01-2011,03:00,30,R,ugm-3
26-01-2011,04:00,42,R,ugm-3
26-01-2011,05:00,38,R,ugm-3
26-01-2011,06:00,50,R,ugm-3
26-01-2011,07:00,60,R,ugm-3
26-01-2011,08:00,62,R,ugm-3
26-01-2011,09:00,64,R,ugm-3
26-01-2011,10:00,66,R,ugm-3
26-01-2011,11:00,68,R,ugm-3
26-01-2011,12:00,68,R,ugm-3
26-01-2011,13:00,70,R,ugm-3
26-01-2011,14:00,76,R,ugm-3
26-01-2011,15:00,78,R,ugm-3
26-01-2011,16:00,78,R,ugm-3
26-01-2011,17:00,74,R,ugm-3
26-01-2011,18:00,,,
26-01-2011,19:00,,,
26-01-2011,20:00,66,R,ugm-3
26-01-2011,21:00,70,R,ugm-3
26-01-2011,22:00,74,R,ugm-3
26-01-2011,23:00,78,R,ugm-3
26-01-2011,24:00,78,R,ugm-3
27-01-2011,01:00,78,R,ugm-3
27-01-2011,02:00,78,R,ugm-3
27-01-2011,03:00,78,R,ugm-3
27-01-2011,04:00,76,R,ugm-3
27-01-2011,05:00,76,R,ugm-3
27-01-2011,06:00,72,R,ugm-3
27-01-2011,07:00,70,R,ugm-3
27-01-2011,08:00,64,R,ugm-3
27-01-2011,09:00,62,R,ugm-3
27-01-2011,10:00,60,R,ugm-3
27-01-2011,11:00,60,R,ugm-3
27-01-2011,12:00,60,R,ugm-3
27-01-2011,13:00,64,R,ugm-3
27-01-2011,14:00,66,R,ugm-3
27-01-2011,15:00,64,R,ugm-3
27-01-2011,16:00,60,R,ugm-3
27-01-2011,17:00,60,R,ugm-3
27-01-2011,18:00,58,R,ugm-3
27-01-2011,19:00,64,R,ugm-3
27-01-2011,20:00,62,R,ugm-3
27-01-2011,21:00,52,R,ugm-3
27-01-2011,22:00,48,R,ugm-3
27-01-2011,23:00,58,R,ugm-3
27-01-2011,24:00,66,R,ugm-3
28-01-2011,01:00,66,R,ugm-3
28-01-2011,02:00,66,R,ugm-3
28-01-2011,03:00,66,R,ugm-3
28-01-2011,04:00,70,R,ugm-3
28-01-2011,05:00,66,R,ugm-3
28-01-2011,06:00,60,R,ugm-3
28-01-2011,07:00,48,R,ugm-3
28-01-2011,08:00,12,R,ugm-3
28-01-2011,09:00,8,R,ugm-3
28-01-2011,10:00,10,R,ugm-3
28-01-2011,11:00,36,R,ugm-3
28-01-2011,12:00,58,R,ugm-3
28-01-2011,13:00,66,R,ugm-3
28-01-2011,14:00,66,R,ugm-3
28-01-2011,15:00,62,R,ugm-3
28-01-2011,16:00,56,R,ugm-3
28-01-2011,17:00,50,R,ugm-3
28-01-2011,18:00,34,R,ugm-3
28-01-2011,19:00,24,R,ugm-3
28-01-2011,20:00,8,R,ugm-3
28-01-2011,21:00,10,R,ugm-3
28-01-2011,22:00,12,R,ugm-3
28-01-2011,23:00,6,R,ugm-3
28-01-2011,24:00,14,R,ugm-3
29-01-2011,01:00,22,R,ugm-3
29-01-2011,02:00,20,R,ugm-3
29-01-2011,03:00,16,R,ugm-3
29-01-2011,04:00,24,R,ugm-3
29-01-2011,05:00,34,R,ugm-3
29-01-2011,06:00,34,R,ugm-3
29-01-2011,07:00,34,R,ugm-3
29-01-2011,08:00,32,R,ugm-3
29-01-2011,09:00,14,R,ugm-3
29-01-2011,10:00,14,R,ugm-3
29-01-2011,11:00,20,R,ugm-3
29-01-2011,12:00,34,R,ugm-3
29-01-2011,13:00,46,R,ugm-3
29-01-2011,14:00,58,R,ugm-3
29-01-2011,15:00,62,R,ugm-3
29-01-2011,16:00,64,R,ugm-3
29-01-2011,17:00,54,R,ugm-3
29-01-2011,18:00,22,R,ugm-3
29-01-2011,19:00,32,R,ugm-3
29-01-2011,20:00,40,R,ugm-3
29-01-2011,21:00,38,R,ugm-3
29-01-2011,22:00,38,R,ugm-3
29-01-2011,23:00,54,R,ugm-3
29-01-2011,24:00,40,R,ugm-3
30-01-2011,01:00,34,R,ugm-3
30-01-2011,02:00,28,R,ugm-3
30-01-2011,03:00,22,R,ugm-3
30-01-2011,04:00,16,R,ugm-3
30-01-2011,05:00,12,R,ugm-3
30-01-2011,06:00,14,R,ugm-3
30-01-2011,07:00,12,R,ugm-3
30-01-2011,08:00,10,R,ugm-3
30-01-2011,09:00,8,R,ugm-3
30-01-2011,10:00,14,R,ugm-3
30-01-2011,11:00,20,R,ugm-3
30-01-2011,12:00,22,R,ugm-3
30-01-2011,13:00,32,R,ugm-3
30-01-2011,14:00,44,R,ugm-3
30-01-2011,15:00,50,R,ugm-3
30-01-2011,16:00,54,R,ugm-3
30-01-2011,17:00,52,R,ugm-3
30-01-2011,18:00,56,R,ugm-3
30-01-2011,19:00,52,R,ugm-3
30-01-2011,20:00,56,R,ugm-3
30-01-2011,21:00,38,R,ugm-3
30-01-2011,22:00,42,R,ugm-3
30-01-2011,23:00,26,R,ugm-3
30-01-2011,24:00,18,R,ugm-3
31-01-2011,01:00,18,R,ugm-3
31-01-2011,02:00,16,R,ugm-3
31-01-2011,03:00,14,R,ugm-3
31-01-2011,04:00,20,R,ugm-3
31-01-2011,05:00,28,R,ugm-3
31-01-2011,06:00,22,R,ugm-3
31-01-2011,07:00,20,R,ugm-3
31-01-2011,08:00,10,R,ugm-3
31-01-2011,09:00,14,R,ugm-3
31-01-2011,10:00,18,R,ugm-3
31-01-2011,11:00,20,R,ugm-3
31-01-2011,12:00,26,R,ugm-3
31-01-2011,13:00,36,R,ugm-3
31-01-2011,14:00,36,R,ugm-3
31-01-2011,15:00,26,R,ugm-3
31-01-2011,16:00,12,R,ugm-3
31-01-2011,17:00,6,R,ugm-3
31-01-2011,18:00,10,R,ugm-3
31-01-2011,19:00,12,R,ugm-3
31-01-2011,20:00,6,R,ugm-3
31-01-2011,21:00,2,R,ugm-3
31-01-2011,22:00,2,R,ugm-3
31-01-2011,23:00,4,R,ugm-3
31-01-2011,24:00,20,R,ugm-3
01-02-2011,01:00,26,R,ugm-3
01-02-2011,02:00,30,R,ugm-3
01-02-2011,03:00,28,R,ugm-3
01-02-2011,04:00,36,R,ugm-3
01-02-2011,05:00,42,R,ugm-3
01-02-2011,06:00,48,R,ugm-3
01-02-2011,07:00,48,R,ugm-3
01-02-2011,08:00,40,R,ugm-3
01-02-2011,09:00,32,R,ugm-3
01-02-2011,10:00,24,R,ugm-3
01-02-2011,11:00,32,R,ugm-3
01-02-2011,12:00,32,R,ugm-3
01-02-2011,13:00,30,R,ugm-3
01-02-2011,14:00,40,R,ugm-3
01-02-2011,15:00,40,R,ugm-3
01-02-2011,16:00,40,R,ugm-3
01-02-2011,17:00,38,R,ugm-3
01-02-2011,18:00,32,R,ugm-3
01-02-2011,19:00,34,R,ugm-3
01-02-2011,20:00,36,R,ugm-3
01-02-2011,21:00,34,R,ugm-3
01-02-2011,22:00,36,R,ugm-3
01-02-2011,23:00,36,R,ugm-3
01-02-2011,24:00,26,R,ugm-3
02-02-2011,01:00,24,R,ugm-3
02-02-2011,02:00,28,R,ugm-3
02-02-2011,03:00,44,R,ugm-3
02-02-2011,04:00,42,R,ugm-3
02-02-2011,05:00,40,R,ugm-3
02-02-2011,06:00,54,R,ugm-3
02-02-2011,07:00,54,R,ugm-3
02-02-2011,08:00,50,R,ugm-3
02-02-2011,09:00,50,R,ugm-3
02-02-2011,10:00,44,R,ugm-3
02-02-2011,11:00,48,R,ugm-3
02-02-2011,12:00,54,R,ugm-3
02-02-2011,13:00,56,R,ugm-3
02-02-2011,14:00,54,R,ugm-3
02-02-2011,15:00,56,R,ugm-3
02-02-2011,16:00,54,R,ugm-3
02-02-2011,17:00,56,R,ugm-3
02-02-2011,18:00,58,R,ugm-3
02-02-2011,19:00,60,R,ugm-3
02-02-2011,20:00,58,R,ugm-3
02-02-2011,21:00,60,R,ugm-3
02-02-2011,22:00,62,R,ugm-3
02-02-2011,23:00,62,R,ugm-3
02-02-2011,24:00,58,R,ugm-3
03-02-2011,01:00,58,R,ugm-3
03-02-2011,02:00,56,R,ugm-3
03-02-2011,03:00,56,R,ugm-3
03-02-2011,04:00,58,R,ugm-3
03-02-2011,05:00,54,R,ugm-3
03-02-2011,06:00,54,R,ugm-3
03-02-2011,07:00,52,R,ugm-3
03-02-2011,08:00,48,R,ugm-3
03-02-2011,09:00,44,R,ugm-3
03-02-2011,10:00,38,R,ugm-3
03-02-2011,11:00,44,R,ugm-3
03-02-2011,12:00,54,R,ugm-3
03-02-2011,13:00,64,R,ugm-3
03-02-2011,14:00,70,R,ugm-3
03-02-2011,15:00,68,R,ugm-3
03-02-2011,16:00,62,R,ugm-3
03-02-2011,17:00,62,R,ugm-3
03-02-2011,18:00,64,R,ugm-3
03-02-2011,19:00,66,R,ugm-3
03-02-2011,20:00,68,R,ugm-3
03-02-2011,21:00,66,R,ugm-3
03-02-2011,22:00,68,R,ugm-3
03-02-2011,23:00,68,R,ugm-3
03-02-2011,24:00,72,R,ugm-3
04-02-2011,01:00,74,R,ugm-3
04-02-2011,02:00,76,R,ugm-3
04-02-2011,03:00,78,R,ugm-3
04-02-2011,04:00,78,R,ugm-3
04-02-2011,05:00,76,R,ugm-3
04-02-2011,06:00,76,R,ugm-3
04-02-2011,07:00,76,R,ugm-3
04-02-2011,08:00,76,R,ugm-3
04-02-2011,09:00,74,R,ugm-3
04-02-2011,10:00,76,R,ugm-3
04-02-2011,11:00,76,R,ugm-3
04-02-2011,12:00,78,R,ugm-3
04-02-2011,13:00,76,R,ugm-3
04-02-2011,14:00,76,R,ugm-3
04-02-2011,15:00,74,R,ugm-3
04-02-2011,16:00,72,R,ugm-3
04-02-2011,17:00,72,R,ugm-3
04-02-2011,18:00,74,R,ugm-3
04-02-2011,19:00,74,R,ugm-3
04-02-2011,20:00,74,R,ugm-3
04-02-2011,21:00,74,R,ugm-3
04-02-2011,22:00,74,R,ugm-3
04-02-2011,23:00,74,R,ugm-3
04-02-2011,24:00,74,R,ugm-3
05-02-2011,01:00,74,R,ugm-3
05-02-2011,02:00,74,R,ugm-3
05-02-2011,03:00,74,R,ugm-3
05-02-2011,04:00,76,R,ugm-3
05-02-2011,05:00,76,R,ugm-3
05-02-2011,06:00,76,R,ugm-3
05-02-2011,07:00,76,R,ugm-3
05-02-2011,08:00,76,R,ugm-3
05-02-2011,09:00,76,R,ugm-3
05-02-2011,10:00,76,R,ugm-3
05-02-2011,11:00,76,R,ugm-3
05-02-2011,12:00,74,R,ugm-3
05-02-2011,13:00,76,R,ugm-3
05-02-2011,14:00,74,R,ugm-3
05-02-2011,15:00,74,R,ugm-3